• In Hungary
  • List of Countries
  • For 7 days
  • Water Temperature
  • Satellite Maps
  • Weather Map
  • News
  • Weather Widgets
  • user-avatar
    Login

    Hourly Weather Skrbensko

    Today, 21 October, Saturday

    Time Temperature Precipitation Wind Pressure Humidity
    00:00 +12°C° 0 mm 2 mps 742 mmHg 78%
    01:00 +12°C° 0 mm 2 mps 742 mmHg 78%
    02:00 +12°C° 0 mm 2 mps 742 mmHg 79%
    03:00 +10°C° 0 mm 2 mps 742 mmHg 79%
    04:00 +10°C° 0 mm 2 mps 742 mmHg 79%
    05:00 +10°C° 0.1 mm 2 mps 742 mmHg 80%
    06:00 +12°C° 0.1 mm 2 mps 742 mmHg 81%
    07:00 +12°C° 0.1 mm 2 mps 742 mmHg 82%
    08:00 +13°C° 0 mm 2 mps 742 mmHg 78%
    09:00 +13°C° 0 mm 3 mps 742 mmHg 75%
    10:00 +14°C° 0 mm 3 mps 742 mmHg 72%
    11:00 +16°C° 0 mm 3 mps 742 mmHg 69%
    12:00 +16°C° 0 mm 3 mps 742 mmHg 65%
    13:00 +17°C° 0 mm 3 mps 741 mmHg 61%
    14:00 +16°C° 0 mm 3 mps 741 mmHg 64%
    15:00 +16°C° 0 mm 2 mps 741 mmHg 68%
    16:00 +15°C° 0 mm 2 mps 741 mmHg 71%
    17:00 +14°C° 0 mm 1 mps 741 mmHg 75%
    18:00 +13°C° 0 mm 1 mps 741 mmHg 79%
    19:00 +12°C° 0 mm 1 mps 742 mmHg 83%
    20:00 +12°C° 0 mm 1 mps 742 mmHg 84%
    21:00 +11°C° 0 mm 1 mps 742 mmHg 85%
    22:00 +11°C° 0 mm 1 mps 742 mmHg 87%
    23:00 +11°C° 0 mm 1 mps 742 mmHg 87%

    Tomorrow, 22 October, Sunday

    Time Temperature Precipitation Wind Pressure Humidity
    00:00 +10°C° 0 mm 1 mps 742 mmHg 88%
    01:00 +10°C° 0 mm 1 mps 742 mmHg 89%
    02:00 +10°C° 0 mm 1 mps 741 mmHg 89%
    03:00 +10°C° 0 mm 1 mps 741 mmHg 89%
    04:00 +10°C° 0 mm 1 mps 741 mmHg 90%
    05:00 +9°C° 0.1 mm 2 mps 741 mmHg 89%
    06:00 +9°C° 0.1 mm 2 mps 741 mmHg 89%
    07:00 +10°C° 0.1 mm 2 mps 741 mmHg 88%
    08:00 +10°C° 1.3 mm 2 mps 741 mmHg 88%
    09:00 +12°C° 1.3 mm 2 mps 741 mmHg 87%
    10:00 +12°C° 1.3 mm 2 mps 741 mmHg 87%
    11:00 +12°C° 1.7 mm 2 mps 741 mmHg 89%
    12:00 +10°C° 1.7 mm 2 mps 741 mmHg 90%
    13:00 +10°C° 1.7 mm 3 mps 741 mmHg 92%
    14:00 +10°C° 0.3 mm 2 mps 740 mmHg 92%
    15:00 +10°C° 0.3 mm 2 mps 740 mmHg 92%
    16:00 +11°C° 0.3 mm 1 mps 740 mmHg 91%
    17:00 +11°C° 0.1 mm 1 mps 740 mmHg 92%
    18:00 +10°C° 0.1 mm 1 mps 740 mmHg 92%
    19:00 +10°C° 0.1 mm 1 mps 740 mmHg 93%
    20:00 +10°C° 0.3 mm 1 mps 741 mmHg 93%
    21:00 +10°C° 0.3 mm 1 mps 741 mmHg 93%
    22:00 +10°C° 0.3 mm 1 mps 741 mmHg 93%
    23:00 +10°C° 1.1 mm 1 mps 740 mmHg 94%

    Day after tomorrow, 23 October, Monday

    Time Temperature Precipitation Wind Pressure Humidity
    00:00 +9°C° 1.1 mm 2 mps 740 mmHg 94%
    01:00 +9°C° 1.1 mm 2 mps 740 mmHg 94%
    02:00 +9°C° 1.2 mm 3 mps 740 mmHg 94%
    03:00 +8°C° 1.2 mm 3 mps 740 mmHg 93%
    04:00 +8°C° 1.2 mm 3 mps 740 mmHg 93%
    05:00 +8°C° 0.7 mm 3 mps 740 mmHg 93%
    06:00 +8°C° 0.7 mm 3 mps 740 mmHg 92%
    07:00 +8°C° 0.7 mm 3 mps 740 mmHg 92%
    08:00 +7°C° 0.6 mm 4 mps 740 mmHg 91%
    09:00 +7°C° 0.6 mm 4 mps 740 mmHg 90%
    10:00 +7°C° 0.6 mm 4 mps 740 mmHg 89%
    11:00 +7°C° 0.6 mm 4 mps 740 mmHg 88%
    12:00 +7°C° 0.6 mm 4 mps 740 mmHg 87%
    13:00 +8°C° 0.6 mm 4 mps 740 mmHg 87%
    14:00 +8°C° 0.4 mm 4 mps 740 mmHg 87%
    15:00 +7°C° 0.4 mm 4 mps 740 mmHg 88%
    16:00 +7°C° 0.4 mm 4 mps 740 mmHg 88%
    17:00 +7°C° 0.6 mm 4 mps 740 mmHg 89%
    18:00 +7°C° 0.6 mm 4 mps 741 mmHg 90%
    19:00 +7°C° 0.6 mm 4 mps 741 mmHg 91%
    20:00 +7°C° 0.8 mm 4 mps 741 mmHg 91%
    21:00 +7°C° 0.8 mm 4 mps 741 mmHg 92%
    22:00 +7°C° 0.8 mm 5 mps 742 mmHg 92%
    23:00 +7°C° 0.7 mm 5 mps 742 mmHg 92%

    24 October, Tuesday

    Time Temperature Precipitation Wind Pressure Humidity
    00:00 +7°C° 0.7 mm 4 mps 742 mmHg 92%
    01:00 +7°C° 0.7 mm 4 mps 742 mmHg 93%
    02:00 +7°C° 0.4 mm 4 mps 743 mmHg 93%
    03:00 +7°C° 0.4 mm 4 mps 743 mmHg 93%
    04:00 +7°C° 0.4 mm 4 mps 743 mmHg 93%
    05:00 +7°C° 0.2 mm 4 mps 744 mmHg 93%
    06:00 +7°C° 0.2 mm 4 mps 744 mmHg 93%
    07:00 +7°C° 0.2 mm 4 mps 745 mmHg 93%
    08:00 +7°C° 0.1 mm 4 mps 745 mmHg 91%
    09:00 +8°C° 0.1 mm 3 mps 746 mmHg 89%
    10:00 +8°C° 0.1 mm 3 mps 746 mmHg 88%
    11:00 +9°C° 0 mm 3 mps 746 mmHg 86%
    12:00 +9°C° 0 mm 3 mps 746 mmHg 84%
    13:00 +9°C° 0 mm 3 mps 747 mmHg 83%
    14:00 +9°C° 0.1 mm 3 mps 747 mmHg 83%
    15:00 +9°C° 0.1 mm 2 mps 747 mmHg 84%
    16:00 +9°C° 0.1 mm 2 mps 747 mmHg 85%
    17:00 +9°C° 0 mm 2 mps 748 mmHg 86%
    18:00 +8°C° 0 mm 2 mps 748 mmHg 87%
    19:00 +8°C° 0 mm 2 mps 749 mmHg 89%
    20:00 +8°C° 0 mm 1 mps 749 mmHg 89%
    21:00 +8°C° 0 mm 1 mps 749 mmHg 90%
    22:00 +7°C° 0 mm 1 mps 749 mmHg 91%
    23:00 +7°C° 0 mm 1 mps 749 mmHg 91%

    25 October, Wednesday

    Time Temperature Precipitation Wind Pressure Humidity
    00:00 +6°C° 0 mm 1 mps 749 mmHg 91%
    01:00 +6°C° 0 mm 1 mps 749 mmHg 91%
    02:00 +6°C° 0 mm 1 mps 749 mmHg 91%
    03:00 +6°C° 0 mm 1 mps 749 mmHg 91%
    04:00 +5°C° 0 mm 1 mps 750 mmHg 91%
    05:00 +5°C° 0 mm 1 mps 750 mmHg 90%
    06:00 +5°C° 0 mm 1 mps 750 mmHg 89%
    07:00 +5°C° 0 mm 1 mps 750 mmHg 89%
    08:00 +6°C° 0 mm 1 mps 750 mmHg 81%
    09:00 +7°C° 0 mm 2 mps 750 mmHg 74%
    10:00 +8°C° 0 mm 2 mps 750 mmHg 66%
    11:00 +9°C° 0 mm 2 mps 750 mmHg 62%
    12:00 +9°C° 0 mm 2 mps 750 mmHg 59%
    13:00 +10°C° 0 mm 2 mps 750 mmHg 55%
    14:00 +9°C° 0 mm 2 mps 749 mmHg 57%
    15:00 +9°C° 0 mm 2 mps 749 mmHg 60%
    16:00 +8°C° 0 mm 2 mps 749 mmHg 62%
    17:00 +8°C° 0 mm 2 mps 750 mmHg 63%
    18:00 +7°C° 0 mm 2 mps 750 mmHg 63%
    19:00 +7°C° 0 mm 2 mps 750 mmHg 64%
    20:00 +7°C° 0 mm 2 mps 750 mmHg 64%
    21:00 +7°C° 0 mm 2 mps 750 mmHg 64%
    22:00 +8°C° 0 mm 1 mps 750 mmHg 64%
    23:00 +8°C° 0 mm 1 mps 750 mmHg 64%

    26 October, Thursday

    Time Temperature Precipitation Wind Pressure Humidity
    00:00 +8°C° 0 mm 1 mps 750 mmHg 64%
    01:00 +8°C° 0 mm 1 mps 750 mmHg 64%
    02:00 +8°C° 0 mm 1 mps 750 mmHg 64%
    03:00 +8°C° 0 mm 1 mps 749 mmHg 65%
    04:00 +8°C° 0 mm 1 mps 749 mmHg 66%
    05:00 +8°C° 0 mm 1 mps 749 mmHg 67%
    06:00 +8°C° 0 mm 1 mps 749 mmHg 69%
    07:00 +8°C° 0 mm 1 mps 749 mmHg 70%
    08:00 +9°C° 0 mm 1 mps 749 mmHg 70%
    09:00 +10°C° 0 mm 1 mps 749 mmHg 70%
    10:00 +10°C° 0 mm 1 mps 749 mmHg 70%
    11:00 +11°C° 0.1 mm 1 mps 749 mmHg 72%
    12:00 +12°C° 0.1 mm 1 mps 749 mmHg 75%
    13:00 +12°C° 0.1 mm 2 mps 748 mmHg 78%
    14:00 +12°C° 0.4 mm 1 mps 748 mmHg 82%
    15:00 +12°C° 0.4 mm 1 mps 748 mmHg 87%
    16:00 +12°C° 0.4 mm 1 mps 748 mmHg 92%
    17:00 +12°C° 0.1 mm 1 mps 748 mmHg 93%
    18:00 +12°C° 0.1 mm 1 mps 748 mmHg 95%
    19:00 +12°C° 0.1 mm 1 mps 749 mmHg 96%
    20:00 +12°C° 0.1 mm 1 mps 749 mmHg 96%
    21:00 +12°C° 0.1 mm 1 mps 749 mmHg 96%
    22:00 +12°C° 0.1 mm 1 mps 749 mmHg 97%
    23:00 +12°C° 0.1 mm 1 mps 749 mmHg 96%
    Show more